Portada
METAR-TAF:

METAR-TAF

Aeroports :

Pyongyang, Corea del Nord

latitud: 39-02N, longitud: 125-47E, altitud: 36 m

METAR: manca

Hora: 05:33 (20:33 UTC)

Pronòstic

L'informe es va fer fa 16 hores i 18 minuts, a les 04:15 UTC
Pronòstic vàlid del 01 a les 06 UTC al 02 a les 06 UTC
Vent 10 kt del Nord
Visibilitat 10 km o més
sense núvols per sota de 1500 mi sense presència de cumulonimbus.

TAF: ZKPY 010415Z 0106/0206 35005MPS CAVOK TX04/0106Z TNM05/0122Z

Observacions i pronòstics meteorològics de més de 4000 aeroports (METAR i TAF).

Les estacions disponibles són els punts grocs i vermells al mapa.

Posi el ratolí al punt desitjat per veure el nom de l'estació.

Feu clic per veure les observacions i els pronòstics meteorològics.

Per canviar el mapa: feu clic els botons verds amb una creu de color negre per apropar; al botó verd amb un guió per allunyar la imatge; o en les fletxes verdes per a mapes adjacents.


METAR-TAF: